World > North America > United States > Missouri > Jennings

Hourly Jennings, MO Regional Weather

Feedback E-mail the Weather

Quick WX

Jennings, MO Weather Maps

°F °C°F °C
Jennings Weather Map
UTC Time: 8/7/2022, 19:53
Your Time:

Jennings, MO Regional Weather

Expires:202208072000;;632104
ASUS43 KEAX 071915
RWREAX

WEATHER ROUNDUP FOR EASTERN KANSAS AND NORTHWEST MISSOURI
NATIONAL WEATHER SERVICE KANSAS CITY/PLEASANT HILL MO
200 PM CDT SUN AUG 07 2022


MOZ041-047>049-056>058-063>065-088>090-097-072000-
...EASTERN AND SOUTHERN MISSOURI...
  
CITY           SKY/WX    TMP DP  RH WIND       PRES   REMARKS
ST. LOUIS INTL PTSUNNY   95  73  48 W6        30.07F HX 104           
SPIRIT OF STL  MOSUNNY   92  74  55 S8        30.05F HX 101           
COLUMBIA       PTSUNNY   94  71  47 SW10      30.07F HX 101           
JEFFERSON CITY MOSUNNY   93  70  46 SW8       30.05F HX  99           
MEXICO         PTSUNNY   88  77  70 S3        30.07F HX 100           
HANNIBAL       PTSUNNY  N/A N/A N/A W6        30.07S                  
ROLLA          CLOUDY    86  72  62 NW9       30.11F HX  92           
LEBANON        MOSUNNY   91  64  40 S8        30.12F HX  93           
OSAGE BEACH    MOSUNNY   90  76  63 SW7       30.23F HX 101           
SPRINGFIELD    MOSUNNY   91  71  51 SW7       30.10F HX  97           
BRANSON        PTSUNNY   90  70  51 SW3       30.14F HX  95           
JOPLIN         PTSUNNY   94  68  42 S14G24    30.09F HX  98           
WEST PLAINS    PTSUNNY   89  71  55 S6        30.14F HX  95           
SIKESTON       SUNNY     91  72  52 S6G18     30.12F HX  98           

$$


SKY/WX - Weather  TMP - Temperature  DP - Dew Point  RH - Humidity
WIND - Wind Direction/Speed PRES - Barometric Pressure VSB - Visibility
WCI - Wind Chill Index E13G22 Wind - East Wind 13 mph/Gusts of 22 mph

Trending Headlines

Jennings Radar Loop



Jennings Quick Facts


National Two Day Weather Forecast


E-mail the Jennings Weather Forecast

Voice your opinion or tell us about page issues...